Location: Waco, TX
(31.5480°N, 97.1670°W)
Time: 08:52:54
(UTC-05:00)

ISS - Pass Details

Date: 10 October 2019
Orbit: 411 x 421 km, 51.6° (Epoch: 18 October)

Event Time Altitude Azimuth Distance (km) Brightness Sun altitude
Rises 18:54:55 0° 329° (NNW) 2,342 0.4 0.8°
Reaches altitude 10° 18:57:27 10° 349° (N) 1,477 -0.9 0.3°
Maximum altitude 18:59:52 19° 36° (NE) 1,066 -2.1 -0.2°
Drops below altitude 10° 19:02:16 10° 83° (E) 1,472 -1.7 -0.7°
Enters shadow 19:04:44 - 102° (ESE) 2,313 -0.6 -1.3°
Sets 19:04:47 0° 102° (ESE) 2,331 - -1.3°
